Weather History for West Plains, MO

Change the Weather History Date:

Monday, December 24, 2012

  Actual Average Record
Temperature  
Mean Temperature 37 °F 34 °F  
Max Temperature 50 °F 45 °F 74 °F (1955)
Min Temperature 23 °F 24 °F -13 °F (1989)
Degree Days  
Heating Degree Days 28 31  
Month to date heating degree days 470 678  
Since 1 July heating degree days 1414 1530  
Cooling Degree Days 0 0  
Month to date cooling degree days 0 0  
Year to date cooling degree days 1739 1354  
Moisture  
Dew Point 26 °F    
Average Humidity 71    
Maximum Humidity 93    
Minimum Humidity 49    
Precipitation  
Precipitation 0.00 in 0.09 in 1.37 in (1982)
Month to date precipitation 1.80 3.11  
Year to date precipitation 31.72 45.69  
Sea Level Pressure  
Sea Level Pressure 29.95 in    
Wind  
Wind Speed 8 mph (NNW)    
Max Wind Speed 15 mph    
Max Gust Speed 21 mph    
Visibility 8 miles    
Events      
T = Trace of Precipitation, MM = Missing Value Source: NWS Daily Summary

Daily Weather History Graph

Daily Weather History Graph

Search for Another Location

Airport:

Trip Planner

Search our weather history database for the weather conditions in past years. The results will help you decide how hot, cold, wet, or windy it might be!

Date:

Astronomy

Dec. 24, 2012 Rise Set
Actual Time 7:18 AM CST 4:56 PM CST
Civil Twilight 6:49 AM CST 5:25 PM CST
Nautical Twilight 6:16 AM CST 5:58 PM CST
Astronomical Twilight 5:45 AM CST 6:29 PM CST
Moon 2:22 PM CST (12/24) 3:59 AM CST (12/24)
Length of Visible Light 10h 36m
Length of Day
9h 38m
Waxing Gibbous, 88% of the Moon is Illuminated
Dec 24
Waxing Gibbous
Dec 28
Full
Jan 4
Last Quarter
Jan 11
New
Jan 18
First Quarter

Hourly Weather History & Observations

Time (CST) Temp. Windchill Dew Point Humidity Pressure Visibility Wind Dir Wind Speed Gust Speed Precip Events Conditions
12:53 AM 46.0 °F - 44.1 °F 93% 29.80 in 6.0 mi Calm Calm - N/A   Mostly Cloudy
1:53 AM 46.0 °F 44.8 °F 43.0 °F 89% 29.80 in 6.0 mi NNW 3.5 mph - N/A   Mostly Cloudy
2:53 AM 44.1 °F 41.5 °F 39.0 °F 82% 29.80 in 10.0 mi NNW 4.6 mph - N/A   Clear
3:53 AM 39.9 °F 34.5 °F 33.1 °F 77% 29.82 in 10.0 mi NNW 8.1 mph - N/A   Clear
4:53 AM 37.9 °F 32.1 °F 30.0 °F 73% 29.83 in 10.0 mi NW 8.1 mph - N/A   Partly Cloudy
5:53 AM 34.0 °F 28.0 °F 28.9 °F 82% 29.86 in 9.0 mi NNW 6.9 mph - N/A   Clear
6:53 AM 32.0 °F 25.6 °F 28.0 °F 85% 29.92 in 7.0 mi NW 6.9 mph - N/A   Clear
7:53 AM 32.0 °F 23.6 °F 27.0 °F 82% 29.95 in 5.0 mi NNW 10.4 mph 19.6 mph N/A   Haze
8:53 AM 34.0 °F 26.6 °F 26.1 °F 73% 29.96 in 6.0 mi NNW 9.2 mph - N/A   Haze
9:53 AM 36.0 °F 28.5 °F 26.1 °F 67% 29.99 in 7.0 mi NNW 10.4 mph - N/A   Clear
10:53 AM 39.0 °F 32.8 °F 25.0 °F 57% 29.97 in 8.0 mi NW 9.2 mph - N/A   Clear
11:53 AM 41.0 °F 35.8 °F 24.1 °F 51% 29.94 in 10.0 mi NW 8.1 mph - N/A   Clear
12:53 PM 42.1 °F 37.7 °F 25.0 °F 51% 29.94 in 10.0 mi WNW 6.9 mph - N/A   Clear
1:53 PM 43.0 °F 39.5 °F 25.0 °F 49% 29.93 in 10.0 mi Variable 5.8 mph - N/A   Clear
2:53 PM 43.0 °F 38.8 °F 25.0 °F 49% 29.93 in 10.0 mi North 6.9 mph - N/A   Clear
3:53 PM 42.1 °F 37.7 °F 25.0 °F 51% 29.97 in 10.0 mi NNW 6.9 mph - N/A   Clear
4:53 PM 37.9 °F 32.7 °F 24.1 °F 57% 29.98 in 9.0 mi NNW 6.9 mph - N/A   Clear
5:53 PM 35.1 °F 29.3 °F 23.0 °F 61% 30.01 in 9.0 mi North 6.9 mph - N/A   Clear
6:53 PM 33.1 °F 26.9 °F 23.0 °F 66% 30.03 in 8.0 mi North 6.9 mph - N/A   Clear
7:53 PM 30.9 °F 23.5 °F 21.9 °F 69% 30.04 in 7.0 mi NNE 8.1 mph - N/A   Clear
8:53 PM 28.0 °F 19.3 °F 21.0 °F 75% 30.05 in 5.0 mi NNE 9.2 mph - N/A   Haze
9:53 PM 24.1 °F 12.5 °F 19.0 °F 81% 30.06 in 4.0 mi North 12.7 mph - N/A   Haze
10:53 PM 23.0 °F 11.1 °F 18.0 °F 81% 30.07 in 4.0 mi NNE 12.7 mph - N/A   Haze
11:34 PM 23.0 °F 10.6 °F 17.6 °F 80% 30.03 in 4.0 mi NNE 13.8 mph - N/A   Haze
11:53 PM 23.0 °F 11.7 °F 18.0 °F 81% 30.07 in 4.0 mi NNE 11.5 mph - N/A   Haze